{"data":{"norad_id":57901,"intl_designator":"2023-146L","name":"STARLINK-30472","alt_names":[],"object_type":"PAYLOAD","status":"ACTIVE","operator":null,"country":"US","launch_date":"2023-09-20","launch_site_code":"AFETR","launch_vehicle":null,"mission":null,"orbit_class":"UNKNOWN","rcs_meters":null,"size_class":null,"mass_kg":null,"dimensions":null,"purposes":["comms"],"wikipedia_slug":null,"has_3d_model":false,"image_url":null,"decayed_at":null,"tle_current":{"epoch":"2026-05-24T23:11:51.642816Z","epoch_age_seconds":78046,"freshness":"FRESH","line1":"1 57901U 23146L   26144.96656994  .00000801  00000+0  38622-4 0  9992","line2":"2 57901  42.9991 239.8616 0001239 274.9982  85.0728 15.27577052147709","mean_motion":15.27577052,"eccentricity":0.0001239,"inclination_deg":42.9991,"raan_deg":239.8616,"arg_perigee_deg":274.9982,"mean_anomaly_deg":85.0728,"bstar":3.8622e-5,"rev_number":14770,"period_min":94.266930634672,"perigee_km":482.20782137537,"apogee_km":483.9080254774,"semimajor_km":6861.1949234264,"source":"CELESTRAK","updated_at":"2026-05-25T13:38:18.453900Z"}}}